When you browse on this site, cookies collect data to enhance your experience and personalize the content and advertising you see.
Visit our Privacy Policy to learn more. By continuing to use the site, you agree to this use of cookies and data.
  • In Hungary
  • List of Countries
  • For 7 days
  • Water Temperature
  • Weather Map
  • News
  • Weather Widgets
  • user-avatar
    Login

    Hourly Weather Ostromeczyn

    Today, 28 February, Friday

    Time Temperature Precipitation Wind Pressure Humidity
    00:00 -1°C° 0 mm 2 mps 737 mmHg 79%
    01:00 -1°C° 0 mm 2 mps 738 mmHg 80%
    02:00 -1°C° 0 mm 2 mps 738 mmHg 82%
    03:00 -1°C° 0 mm 2 mps 738 mmHg 82%
    04:00 -1°C° 0 mm 2 mps 738 mmHg 82%
    05:00 -1°C° 0 mm 2 mps 738 mmHg 83%
    06:00 +1°C° 0 mm 1 mps 738 mmHg 83%
    07:00 +1°C° 0 mm 1 mps 739 mmHg 83%
    08:00 +1°C° 0 mm 1 mps 739 mmHg 83%
    09:00 +1°C° 0 mm 2 mps 740 mmHg 78%
    10:00 +2°C° 0 mm 2 mps 740 mmHg 73%
    11:00 +2°C° 0 mm 3 mps 741 mmHg 68%
    12:00 +3°C° 0 mm 3 mps 741 mmHg 66%
    13:00 +3°C° 0 mm 4 mps 741 mmHg 65%
    14:00 +2°C° 0 mm 5 mps 742 mmHg 63%
    15:00 +3°C° 0 mm 4 mps 742 mmHg 65%
    16:00 +3°C° 0 mm 4 mps 743 mmHg 66%
    17:00 +3°C° 0 mm 3 mps 743 mmHg 68%
    18:00 +2°C° 0 mm 3 mps 744 mmHg 72%
    19:00 +1°C° 0 mm 3 mps 744 mmHg 76%
    20:00 +1°C° 0 mm 2 mps 745 mmHg 80%
    21:00 -1°C° 0 mm 2 mps 745 mmHg 80%
    22:00 -1°C° 0 mm 3 mps 746 mmHg 80%
    23:00 -1°C° 0 mm 3 mps 746 mmHg 80%

    Tomorrow, 29 February, Saturday

    Time Temperature Precipitation Wind Pressure Humidity
    00:00 -1°C° 0 mm 3 mps 746 mmHg 82%
    01:00 -1°C° 0 mm 3 mps 746 mmHg 85%
    02:00 -1°C° 0 mm 3 mps 746 mmHg 87%
    03:00 -1°C° 0 mm 3 mps 746 mmHg 88%
    04:00 -1°C° 0 mm 3 mps 746 mmHg 88%
    05:00 -2°C° 0 mm 4 mps 746 mmHg 89%
    06:00 -2°C° 0 mm 4 mps 746 mmHg 89%
    07:00 -2°C° 0 mm 4 mps 746 mmHg 90%
    08:00 -2°C° 0 mm 4 mps 746 mmHg 90%
    09:00 -1°C° 0 mm 4 mps 746 mmHg 83%
    10:00 0°C° 0 mm 4 mps 746 mmHg 77%
    11:00 +3°C° 0 mm 4 mps 746 mmHg 70%
    12:00 +2°C° 0 mm 5 mps 745 mmHg 66%
    13:00 +3°C° 0 mm 5 mps 745 mmHg 63%
    14:00 +5°C° 0 mm 5 mps 745 mmHg 59%
    15:00 +3°C° 0 mm 5 mps 744 mmHg 59%
    16:00 +3°C° 0 mm 5 mps 743 mmHg 59%
    17:00 +3°C° 0 mm 5 mps 743 mmHg 59%
    18:00 +2°C° 0 mm 5 mps 742 mmHg 62%
    19:00 +2°C° 0 mm 6 mps 742 mmHg 66%
    20:00 +1°C° 0 mm 6 mps 742 mmHg 69%
    21:00 +1°C° 0 mm 6 mps 742 mmHg 70%
    22:00 +1°C° 0 mm 6 mps 742 mmHg 71%
    23:00 +1°C° 0 mm 6 mps 741 mmHg 72%

    Day after tomorrow, 1 March, Sunday

    Time Temperature Precipitation Wind Pressure Humidity
    00:00 +1°C° 0 mm 6 mps 741 mmHg 72%
    01:00 +1°C° 0 mm 6 mps 741 mmHg 72%
    02:00 +1°C° 0 mm 5 mps 740 mmHg 72%
    03:00 +1°C° 0.2 mm 6 mps 740 mmHg 75%
    04:00 +1°C° 0.2 mm 6 mps 740 mmHg 77%
    05:00 +1°C° 0.2 mm 6 mps 740 mmHg 80%
    06:00 +1°C° 0.1 mm 6 mps 740 mmHg 79%
    07:00 +1°C° 0.1 mm 5 mps 740 mmHg 79%
    08:00 +1°C° 0.1 mm 5 mps 740 mmHg 78%
    09:00 +1°C° 0.3 mm 5 mps 740 mmHg 82%
    10:00 +1°C° 0.3 mm 5 mps 740 mmHg 86%
    11:00 +1°C° 0.3 mm 5 mps 740 mmHg 90%
    12:00 +2°C° 0.2 mm 5 mps 740 mmHg 89%
    13:00 +3°C° 0.2 mm 4 mps 740 mmHg 89%
    14:00 +4°C° 0.2 mm 4 mps 741 mmHg 89%
    15:00 +4°C° 0 mm 4 mps 740 mmHg 87%
    16:00 +5°C° 0 mm 4 mps 740 mmHg 85%
    17:00 +5°C° 0 mm 4 mps 740 mmHg 82%
    18:00 +5°C° 0 mm 4 mps 741 mmHg 84%
    19:00 +4°C° 0 mm 4 mps 741 mmHg 86%
    20:00 +4°C° 0 mm 4 mps 741 mmHg 88%
    21:00 +3°C° 0 mm 4 mps 741 mmHg 89%
    22:00 +3°C° 0 mm 4 mps 741 mmHg 90%
    23:00 +3°C° 0 mm 4 mps 741 mmHg 91%

    2 March, Monday

    Time Temperature Precipitation Wind Pressure Humidity
    00:00 +3°C° 0 mm 4 mps 741 mmHg 92%
    01:00 +1°C° 0 mm 4 mps 741 mmHg 93%
    02:00 +2°C° 0 mm 3 mps 741 mmHg 94%
    03:00 +2°C° 0 mm 3 mps 740 mmHg 94%
    04:00 +1°C° 0 mm 3 mps 740 mmHg 95%
    05:00 +1°C° 0 mm 3 mps 740 mmHg 95%
    06:00 +1°C° 0 mm 3 mps 740 mmHg 95%
    07:00 +1°C° 0 mm 3 mps 739 mmHg 95%
    08:00 +1°C° 0 mm 3 mps 739 mmHg 94%
    09:00 +1°C° 0 mm 4 mps 739 mmHg 89%
    10:00 +3°C° 0 mm 4 mps 738 mmHg 84%
    11:00 +5°C° 0 mm 5 mps 738 mmHg 79%
    12:00 +3°C° 0.1 mm 5 mps 737 mmHg 83%
    13:00 +3°C° 0.1 mm 6 mps 737 mmHg 86%
    14:00 +3°C° 0.1 mm 6 mps 736 mmHg 89%
    15:00 +3°C° 0.7 mm 6 mps 735 mmHg 90%
    16:00 +4°C° 0.7 mm 6 mps 734 mmHg 91%
    17:00 +4°C° 0.7 mm 6 mps 734 mmHg 92%
    18:00 +4°C° 0.9 mm 6 mps 734 mmHg 93%
    19:00 +5°C° 0.9 mm 5 mps 734 mmHg 94%
    20:00 +5°C° 0.9 mm 4 mps 733 mmHg 95%
    21:00 +5°C° 0.2 mm 5 mps 734 mmHg 92%
    22:00 +4°C° 0.2 mm 6 mps 734 mmHg 89%
    23:00 +4°C° 0.2 mm 7 mps 735 mmHg 87%

    3 March, Tuesday

    Time Temperature Precipitation Wind Pressure Humidity
    00:00 +3°C° 0 mm 6 mps 736 mmHg 87%
    01:00 +2°C° 0 mm 5 mps 736 mmHg 87%
    02:00 +3°C° 0 mm 4 mps 737 mmHg 87%
    03:00 +1°C° 0 mm 4 mps 738 mmHg 87%
    04:00 +1°C° 0 mm 4 mps 738 mmHg 87%
    05:00 0°C° 0 mm 4 mps 739 mmHg 87%
    06:00 +1°C° 0 mm 3 mps 739 mmHg 87%
    07:00 +2°C° 0 mm 2 mps 740 mmHg 87%
    08:00 +2°C° 0 mm 2 mps 740 mmHg 88%
    09:00 +3°C° 0 mm 2 mps 741 mmHg 81%
    10:00 +5°C° 0 mm 2 mps 741 mmHg 74%
    11:00 +5°C° 0 mm 3 mps 742 mmHg 67%
    12:00 +7°C° 0 mm 3 mps 742 mmHg 64%
    13:00 +7°C° 0 mm 3 mps 742 mmHg 61%
    14:00 +8°C° 0 mm 3 mps 742 mmHg 58%
    15:00 +8°C° 0 mm 3 mps 742 mmHg 60%
    16:00 +8°C° 0 mm 3 mps 742 mmHg 62%
    17:00 +8°C° 0 mm 3 mps 742 mmHg 64%
    18:00 +7°C° 0.1 mm 3 mps 742 mmHg 68%
    19:00 +7°C° 0.1 mm 3 mps 742 mmHg 72%
    20:00 +5°C° 0.1 mm 4 mps 742 mmHg 77%
    21:00 +5°C° 0.7 mm 4 mps 741 mmHg 80%
    22:00 +5°C° 0.7 mm 4 mps 741 mmHg 83%
    23:00 +3°C° 0.7 mm 5 mps 741 mmHg 87%

    4 March, Wednesday

    Time Temperature Precipitation Wind Pressure Humidity
    00:00 +4°C° 1.5 mm 4 mps 741 mmHg 89%
    01:00 +4°C° 1.5 mm 4 mps 740 mmHg 91%
    02:00 +4°C° 1.5 mm 3 mps 740 mmHg 93%
    03:00 +4°C° 1 mm 3 mps 739 mmHg 94%
    04:00 +5°C° 1 mm 2 mps 739 mmHg 95%
    05:00 +6°C° 1 mm 1 mps 739 mmHg 96%
    06:00 +6°C° 0.2 mm 1 mps 738 mmHg 96%
    07:00 +6°C° 0.2 mm 1 mps 738 mmHg 95%
    08:00 +5°C° 0.2 mm 2 mps 738 mmHg 95%
    09:00 +4°C° 0 mm 3 mps 738 mmHg 93%
    10:00 +4°C° 0 mm 3 mps 738 mmHg 91%
    11:00 +4°C° 0 mm 4 mps 739 mmHg 89%
    12:00 +5°C° 0 mm 4 mps 739 mmHg 86%
    13:00 +5°C° 0 mm 5 mps 739 mmHg 83%
    14:00 +5°C° 0 mm 5 mps 739 mmHg 80%
    15:00 +5°C° 0 mm 4 mps 739 mmHg 77%
    16:00 +5°C° 0 mm 4 mps 739 mmHg 74%
    17:00 +5°C° 0 mm 3 mps 739 mmHg 71%
    18:00 +4°C° 0 mm 3 mps 739 mmHg 74%
    19:00 +5°C° 0 mm 2 mps 739 mmHg 76%
    20:00 +4°C° 0 mm 2 mps 740 mmHg 79%
    21:00 +3°C° 0 mm 2 mps 740 mmHg 81%
    22:00 +3°C° 0 mm 2 mps 740 mmHg 83%
    23:00 +3°C° 0 mm 1 mps 741 mmHg 85%
    Show more